User: anonymous   Login
Location: Sherrills_Ford_Terrell
(35.6000°N, 80.9830°W)
Time: 19:40:00
(UTC-05:00)
Language:

CZ-4B R/B - Orbit

View from above orbital plane
View from above orbital plane
View from above satellite
View from above satellite

Ground track
Ground track

The orbit data is extracted from the following two-line orbital elements,

1 29093U 06015B   17051.45830781  .00003285  00000-0  81451-4 0  9996
2 29093  97.4863 159.7210 0066013  18.6839 341.6807 15.38908457599572
Epoch (UTC): 20 February 2017 10:59:57
Eccentricity: 0.0066013
inclination: 97.4863°
perigee height: 404 km
apogee height: 494 km
right ascension of ascending node: 159.7210°
argument of perigee: 18.6839°
revolutions per day: 15.38908457
mean anomaly at epoch: 341.6807°
orbit number at epoch: 59957

The dashed part of the orbit path shows where the satellite is in the earth's shadow,  

DLR